Year,Month,Day,Hour,Minute,Value (Times are PST for temperature in C)
2017,06,19,00,00,12.70
2017,06,19,00,01,12.80
2017,06,19,00,02,12.80
2017,06,19,00,03,12.80
2017,06,19,00,04,12.90
2017,06,19,00,05,12.90
2017,06,19,00,06,13.00
2017,06,19,00,07,13.00
2017,06,19,00,08,13.10
2017,06,19,00,09,13.10
2017,06,19,00,10,13.10
2017,06,19,00,11,13.10
2017,06,19,00,12,13.20
2017,06,19,00,13,13.20
2017,06,19,00,14,13.20
2017,06,19,00,15,13.20
2017,06,19,00,16,13.20
2017,06,19,00,17,13.20
2017,06,19,00,18,13.10
2017,06,19,00,19,13.10
2017,06,19,00,20,13.10
2017,06,19,00,21,13.10
2017,06,19,00,22,13.10
2017,06,19,00,23,13.10
2017,06,19,00,24,13.10
2017,06,19,00,25,13.00
2017,06,19,00,27,13.00
2017,06,19,00,28,13.00
2017,06,19,00,29,13.00
2017,06,19,00,31,13.00
2017,06,19,00,32,12.90
2017,06,19,00,33,12.90
2017,06,19,00,34,12.90
2017,06,19,00,36,12.90
2017,06,19,00,37,12.90
2017,06,19,00,38,12.90
2017,06,19,00,39,12.90
2017,06,19,00,41,12.90
2017,06,19,00,42,12.90
2017,06,19,00,43,12.90
2017,06,19,00,44,12.90
2017,06,19,00,46,12.90
2017,06,19,00,47,12.90
2017,06,19,00,48,12.90
2017,06,19,00,49,12.80
2017,06,19,00,51,12.80
2017,06,19,00,52,12.80
2017,06,19,00,53,12.80
2017,06,19,00,54,12.80
2017,06,19,00,56,12.90
2017,06,19,00,57,12.90
2017,06,19,00,58,12.80
2017,06,19,00,59,12.80
2017,06,19,01,01,12.80
2017,06,19,01,02,12.70
2017,06,19,01,03,12.70
2017,06,19,01,04,12.60
2017,06,19,01,06,12.50
2017,06,19,01,07,12.50
2017,06,19,01,08,12.40
2017,06,19,01,09,12.40
2017,06,19,01,11,12.30
2017,06,19,01,12,12.30
2017,06,19,01,13,12.30
2017,06,19,01,14,12.30
2017,06,19,01,16,12.30
2017,06,19,01,17,12.30
2017,06,19,01,18,12.30
2017,06,19,01,19,12.30
2017,06,19,01,21,12.30
2017,06,19,01,22,12.30
2017,06,19,01,23,12.30
2017,06,19,01,24,12.30
2017,06,19,01,26,12.30
2017,06,19,01,27,12.20
2017,06,19,01,28,12.20
2017,06,19,01,29,12.20
2017,06,19,01,31,12.20
2017,06,19,01,32,12.20
2017,06,19,01,33,12.20
2017,06,19,01,34,12.20
2017,06,19,01,36,12.30
2017,06,19,01,37,12.30
2017,06,19,01,38,12.30
2017,06,19,01,39,12.30
2017,06,19,01,41,12.40
2017,06,19,01,42,12.40
2017,06,19,01,43,12.40
2017,06,19,01,44,12.40
2017,06,19,01,46,12.40
2017,06,19,01,47,12.40
2017,06,19,01,48,12.40
2017,06,19,01,49,12.40
2017,06,19,01,50,12.40
2017,06,19,01,51,12.40
2017,06,19,01,52,12.40
2017,06,19,01,53,12.40
2017,06,19,01,54,12.40
2017,06,19,01,55,12.40
2017,06,19,01,56,12.40
2017,06,19,01,57,12.40
2017,06,19,01,58,12.40
2017,06,19,01,59,12.40
2017,06,19,02,00,12.50
2017,06,19,02,01,12.50
2017,06,19,02,02,12.50
2017,06,19,02,03,12.50
2017,06,19,02,04,12.50
2017,06,19,02,06,12.50
2017,06,19,02,07,12.50
2017,06,19,02,08,12.40
2017,06,19,02,09,12.40
2017,06,19,02,10,12.40
2017,06,19,02,11,12.40
2017,06,19,02,12,12.30
2017,06,19,02,13,12.30
2017,06,19,02,14,12.30
2017,06,19,02,15,12.30
2017,06,19,02,16,12.30
2017,06,19,02,17,12.30
2017,06,19,02,18,12.30
2017,06,19,02,19,12.30
2017,06,19,02,20,12.30
2017,06,19,02,21,12.30
2017,06,19,02,22,12.30
2017,06,19,02,23,12.30
2017,06,19,02,24,12.30
2017,06,19,02,25,12.30
2017,06,19,02,26,12.30
2017,06,19,02,27,12.30
2017,06,19,02,28,12.30
2017,06,19,02,29,12.30
2017,06,19,02,30,12.20
2017,06,19,02,31,12.20
2017,06,19,02,32,12.20
2017,06,19,02,33,12.20
2017,06,19,02,34,12.20
2017,06,19,02,35,12.10
2017,06,19,02,36,12.10
2017,06,19,02,37,12.10
2017,06,19,02,38,12.10
2017,06,19,02,39,12.10
2017,06,19,02,40,12.10
2017,06,19,02,41,12.10
2017,06,19,02,42,12.10
2017,06,19,02,43,12.00
2017,06,19,02,44,12.00
2017,06,19,02,45,12.00
2017,06,19,02,46,12.00
2017,06,19,02,47,12.00
2017,06,19,02,48,12.00
2017,06,19,02,49,11.90
2017,06,19,02,50,11.90
2017,06,19,02,51,11.90
2017,06,19,02,52,11.90
2017,06,19,02,53,11.90
2017,06,19,02,54,11.90
2017,06,19,02,55,11.90
2017,06,19,02,56,12.00
2017,06,19,02,57,12.00
2017,06,19,02,58,12.00
2017,06,19,02,59,12.00
2017,06,19,03,00,12.00
2017,06,19,03,01,12.00
2017,06,19,03,03,12.00
2017,06,19,03,04,12.10
2017,06,19,03,06,12.20
2017,06,19,03,07,12.20
2017,06,19,03,08,12.20
2017,06,19,03,09,12.30
2017,06,19,03,11,12.30
2017,06,19,03,12,12.30
2017,06,19,03,13,12.30
2017,06,19,03,14,12.30
2017,06,19,03,16,12.40
2017,06,19,03,17,12.40
2017,06,19,03,18,12.40
2017,06,19,03,19,12.40
2017,06,19,03,21,12.50
2017,06,19,03,22,12.50
2017,06,19,03,23,12.50
2017,06,19,03,24,12.50
2017,06,19,03,26,12.50
2017,06,19,03,27,12.60
2017,06,19,03,28,12.60
2017,06,19,03,29,12.60
2017,06,19,03,31,12.60
2017,06,19,03,32,12.60
2017,06,19,03,33,12.60
2017,06,19,03,34,12.60
2017,06,19,03,36,12.60
2017,06,19,03,37,12.60
2017,06,19,03,38,12.60
2017,06,19,03,39,12.50
2017,06,19,03,41,12.50
2017,06,19,03,42,12.50
2017,06,19,03,43,12.50
2017,06,19,03,44,12.50
2017,06,19,03,46,12.50
2017,06,19,03,47,12.50
2017,06,19,03,48,12.50
2017,06,19,03,49,12.50
2017,06,19,03,51,12.50
2017,06,19,03,52,12.50
2017,06,19,03,53,12.40
2017,06,19,03,54,12.40
2017,06,19,03,56,12.30
2017,06,19,03,57,12.30
2017,06,19,03,58,12.30
2017,06,19,03,59,12.30
2017,06,19,04,01,12.30
2017,06,19,04,02,12.30
2017,06,19,04,03,12.30
2017,06,19,04,04,12.30
2017,06,19,04,06,12.30
2017,06,19,04,07,12.30
2017,06,19,04,08,12.30
2017,06,19,04,09,12.30
2017,06,19,04,11,12.40
2017,06,19,04,12,12.40
2017,06,19,04,13,12.50
2017,06,19,04,14,12.50
2017,06,19,04,16,12.50
2017,06,19,04,17,12.50
2017,06,19,04,18,12.50
2017,06,19,04,19,12.50
2017,06,19,04,21,12.60
2017,06,19,04,22,12.60
2017,06,19,04,23,12.60
2017,06,19,04,24,12.60
2017,06,19,04,26,12.70
2017,06,19,04,27,12.70
2017,06,19,04,28,12.70
2017,06,19,04,29,12.70
2017,06,19,04,31,12.70
2017,06,19,04,32,12.70
2017,06,19,04,33,12.70
2017,06,19,04,34,12.70
2017,06,19,04,36,12.70
2017,06,19,04,37,12.70
2017,06,19,04,38,12.70
2017,06,19,04,39,12.70
2017,06,19,04,40,12.70
2017,06,19,04,41,12.70
2017,06,19,04,42,12.70
2017,06,19,04,43,12.60
2017,06,19,04,44,12.60
2017,06,19,04,45,12.60
2017,06,19,04,46,12.60
2017,06,19,04,47,12.60
2017,06,19,04,48,12.60
2017,06,19,04,49,12.60
2017,06,19,04,50,12.60
2017,06,19,04,51,12.60
2017,06,19,04,52,12.50
2017,06,19,04,53,12.50
2017,06,19,04,54,12.50
2017,06,19,04,55,12.50
2017,06,19,04,56,12.50
2017,06,19,04,57,12.50
2017,06,19,04,58,12.50
2017,06,19,04,59,12.50
2017,06,19,05,00,12.50
2017,06,19,05,01,12.50
2017,06,19,05,02,12.60
2017,06,19,05,03,12.60
2017,06,19,05,04,12.60
2017,06,19,05,05,12.60
2017,06,19,05,06,12.60
2017,06,19,05,07,12.60
2017,06,19,05,08,12.50
2017,06,19,05,09,12.50
2017,06,19,05,11,12.50
2017,06,19,05,12,12.50
2017,06,19,05,13,12.50
2017,06,19,05,14,12.50
2017,06,19,05,16,12.40
2017,06,19,05,17,12.40
2017,06,19,05,18,12.40
2017,06,19,05,19,12.40
2017,06,19,05,21,12.30
2017,06,19,05,22,12.30
2017,06,19,05,23,12.30
2017,06,19,05,24,12.30
2017,06,19,05,26,12.30
2017,06,19,05,27,12.30
2017,06,19,05,28,12.30
2017,06,19,05,29,12.30
2017,06,19,05,31,12.20
2017,06,19,05,32,12.20
2017,06,19,05,33,12.20
2017,06,19,05,34,12.20
2017,06,19,05,36,12.10
2017,06,19,05,37,12.10
2017,06,19,05,38,12.10
2017,06,19,05,39,12.10
2017,06,19,05,41,12.10
2017,06,19,05,42,12.10
2017,06,19,05,43,12.10
2017,06,19,05,44,12.10
2017,06,19,05,46,12.10
2017,06,19,05,47,12.10
2017,06,19,05,48,12.10
2017,06,19,05,49,12.10
2017,06,19,05,51,12.10
2017,06,19,05,52,12.10
2017,06,19,05,53,12.10
2017,06,19,05,54,12.10
2017,06,19,05,56,12.10
2017,06,19,05,57,12.10
2017,06,19,05,58,12.10
2017,06,19,05,59,12.20
2017,06,19,06,01,12.20
2017,06,19,06,02,12.20
2017,06,19,06,03,12.20
2017,06,19,06,04,12.20
2017,06,19,06,28,12.40
2017,06,19,06,29,12.40
2017,06,19,06,30,12.40
2017,06,19,06,32,12.40
2017,06,19,06,33,12.40
2017,06,19,06,34,12.40
2017,06,19,06,36,12.40
2017,06,19,06,37,12.50
2017,06,19,06,38,12.50
2017,06,19,06,39,12.50
2017,06,19,06,41,12.40
2017,06,19,06,42,12.40
2017,06,19,06,43,12.40
2017,06,19,06,44,12.40
2017,06,19,06,46,12.40
2017,06,19,06,47,12.40
2017,06,19,06,48,12.40
2017,06,19,06,49,12.40
2017,06,19,06,51,12.50
2017,06,19,06,52,12.50
2017,06,19,06,53,12.50
2017,06,19,06,54,12.50
2017,06,19,06,56,12.60
2017,06,19,06,57,12.60
2017,06,19,06,58,12.70
2017,06,19,06,59,12.70
2017,06,19,07,01,12.80
2017,06,19,07,02,12.80
2017,06,19,07,03,12.80
2017,06,19,07,04,12.80
2017,06,19,07,06,12.80
2017,06,19,07,07,12.80
2017,06,19,07,08,12.80
2017,06,19,07,09,12.80
2017,06,19,07,11,12.80
2017,06,19,07,12,12.90
2017,06,19,07,13,12.90
2017,06,19,07,14,12.90
2017,06,19,07,16,12.90
2017,06,19,07,17,12.90
2017,06,19,07,18,12.90
2017,06,19,07,19,12.90
2017,06,19,07,21,12.90
2017,06,19,07,22,12.90
2017,06,19,07,23,12.90
2017,06,19,07,24,12.90
2017,06,19,07,26,12.90
2017,06,19,07,27,12.90
2017,06,19,07,28,12.90
2017,06,19,07,29,12.90
2017,06,19,07,31,12.90
2017,06,19,07,32,12.90
2017,06,19,07,33,12.90
2017,06,19,07,34,12.90
2017,06,19,07,36,12.80
2017,06,19,07,37,12.80
2017,06,19,07,38,12.80
2017,06,19,07,39,12.80
2017,06,19,07,41,12.80
2017,06,19,07,42,12.80
2017,06,19,07,43,12.70
2017,06,19,07,44,12.70
2017,06,19,07,46,12.70
2017,06,19,07,47,12.70
2017,06,19,07,48,12.70
2017,06,19,07,49,12.70
2017,06,19,07,51,12.70
2017,06,19,07,52,12.70
2017,06,19,07,53,12.70
2017,06,19,07,54,12.70
2017,06,19,07,55,12.70
2017,06,19,07,56,12.70
2017,06,19,07,57,12.70
2017,06,19,07,58,12.80
2017,06,19,07,59,12.80
2017,06,19,08,00,12.80
2017,06,19,08,01,12.80
2017,06,19,08,02,12.80
2017,06,19,08,03,12.80
2017,06,19,08,04,12.90
2017,06,19,08,06,12.90
2017,06,19,08,07,13.00
2017,06,19,08,08,13.00
2017,06,19,08,09,13.00
2017,06,19,08,10,13.10
2017,06,19,08,11,13.10
2017,06,19,08,12,13.20
2017,06,19,08,13,13.20
2017,06,19,08,14,13.30
2017,06,19,08,15,13.30
2017,06,19,08,16,13.30
2017,06,19,08,17,13.30
2017,06,19,08,18,13.30
2017,06,19,08,19,13.30
2017,06,19,08,20,13.30
2017,06,19,08,21,13.30
2017,06,19,08,22,13.30
2017,06,19,08,23,13.30
2017,06,19,08,24,13.30
2017,06,19,08,25,13.30
2017,06,19,08,26,13.30
2017,06,19,08,27,13.30
2017,06,19,08,28,13.20
2017,06,19,08,29,13.20
2017,06,19,08,30,13.20
2017,06,19,08,31,13.20
2017,06,19,08,32,13.20
2017,06,19,08,33,13.20
2017,06,19,08,34,13.20
2017,06,19,08,35,13.20
2017,06,19,08,36,13.20
2017,06,19,08,37,13.20
2017,06,19,08,38,13.20
2017,06,19,08,39,13.20
2017,06,19,08,40,13.20
2017,06,19,08,41,13.20
2017,06,19,08,42,13.20
2017,06,19,08,43,13.10
2017,06,19,08,44,13.10
2017,06,19,08,45,13.20
2017,06,19,08,46,13.20
2017,06,19,08,47,13.20
2017,06,19,08,48,13.20
2017,06,19,08,49,13.20
2017,06,19,08,50,13.20
2017,06,19,08,51,13.20
2017,06,19,08,52,13.10
2017,06,19,08,53,13.10
2017,06,19,08,54,13.00
2017,06,19,08,55,13.00
2017,06,19,08,56,12.90
2017,06,19,08,57,12.90
2017,06,19,08,58,12.90
2017,06,19,08,59,12.90
2017,06,19,09,00,12.90
2017,06,19,09,01,12.90
2017,06,19,09,02,12.90
2017,06,19,09,03,13.00
2017,06,19,09,04,13.00
2017,06,19,09,05,13.10
2017,06,19,09,06,13.10
2017,06,19,09,07,13.10
2017,06,19,09,08,13.20
2017,06,19,09,09,13.20
2017,06,19,09,10,13.20
2017,06,19,09,11,13.30
2017,06,19,09,12,13.30
2017,06,19,09,13,13.30
2017,06,19,09,14,13.30
2017,06,19,09,15,13.30
2017,06,19,09,16,13.30
2017,06,19,09,17,13.30
2017,06,19,09,18,13.30
2017,06,19,09,19,13.30
2017,06,19,09,20,13.30
2017,06,19,09,22,13.30
2017,06,19,09,23,13.30
2017,06,19,09,24,13.30
2017,06,19,09,26,13.30
2017,06,19,09,27,13.30
2017,06,19,09,28,13.30
2017,06,19,09,29,13.20
2017,06,19,09,31,13.20
2017,06,19,09,32,13.20
2017,06,19,09,33,13.20
2017,06,19,09,34,13.20
2017,06,19,09,36,13.20
2017,06,19,09,37,13.20
2017,06,19,09,38,13.30
2017,06,19,09,39,13.30
2017,06,19,09,41,13.30
2017,06,19,09,42,13.30
2017,06,19,09,43,13.30
2017,06,19,09,44,13.40
2017,06,19,09,46,13.40
2017,06,19,09,47,13.50
2017,06,19,09,48,13.50
2017,06,19,09,49,13.50
2017,06,19,09,51,13.60
2017,06,19,09,52,13.60
2017,06,19,09,53,13.60
2017,06,19,09,54,13.60
2017,06,19,09,56,13.60
2017,06,19,09,57,13.60
2017,06,19,09,58,13.60
2017,06,19,09,59,13.60
2017,06,19,10,01,13.60
2017,06,19,10,02,13.70
2017,06,19,10,03,13.70
2017,06,19,10,04,13.70
2017,06,19,10,06,13.70
2017,06,19,10,07,13.70
2017,06,19,10,08,13.70
2017,06,19,10,09,13.70
2017,06,19,10,11,13.70
2017,06,19,10,12,13.70
2017,06,19,10,13,13.70
2017,06,19,10,14,13.70
2017,06,19,10,16,13.70
2017,06,19,10,17,13.70
2017,06,19,10,18,13.70
2017,06,19,10,19,13.70
2017,06,19,10,21,13.70
2017,06,19,10,22,13.70
2017,06,19,10,23,13.70
2017,06,19,10,24,13.70
2017,06,19,10,26,13.70
2017,06,19,10,27,13.70
2017,06,19,10,28,13.70
2017,06,19,10,29,13.70
2017,06,19,10,31,13.70
2017,06,19,10,32,13.70
2017,06,19,10,33,13.70
2017,06,19,10,34,13.70
2017,06,19,10,36,13.70
2017,06,19,10,37,13.70
2017,06,19,10,38,13.70
2017,06,19,10,39,13.70
2017,06,19,10,41,13.80
2017,06,19,10,42,13.90
2017,06,19,10,43,13.90
2017,06,19,10,44,14.00
2017,06,19,10,46,14.00
2017,06,19,10,47,14.00
2017,06,19,10,48,14.10
2017,06,19,10,49,14.10
2017,06,19,11,28,13.80
2017,06,19,11,29,13.80
2017,06,19,11,30,13.80
2017,06,19,11,32,13.90
2017,06,19,11,33,13.90
2017,06,19,11,34,13.90
2017,06,19,11,36,13.90
2017,06,19,11,37,13.80
2017,06,19,11,38,13.80
2017,06,19,11,39,13.80
2017,06,19,11,41,13.80
2017,06,19,11,42,13.80
2017,06,19,11,43,13.80
2017,06,19,11,44,13.90
2017,06,19,11,46,13.90
2017,06,19,11,47,13.90
2017,06,19,11,48,13.90
2017,06,19,11,49,13.90
2017,06,19,11,51,14.00
2017,06,19,11,52,14.00
2017,06,19,11,53,14.00
2017,06,19,11,54,14.00
2017,06,19,11,56,14.10
2017,06,19,11,57,14.20
2017,06,19,11,58,14.20
2017,06,19,11,59,14.20
2017,06,19,12,01,14.30
2017,06,19,12,02,14.30
2017,06,19,12,03,14.40
2017,06,19,12,04,14.40
2017,06,19,12,06,14.50
2017,06,19,12,07,14.50
2017,06,19,12,08,14.50
2017,06,19,12,09,14.60
2017,06,19,12,11,14.70
2017,06,19,12,12,14.70
2017,06,19,12,13,14.80
2017,06,19,12,14,14.80
2017,06,19,12,16,14.80
2017,06,19,12,17,14.80
2017,06,19,12,18,14.80
2017,06,19,12,19,14.80
2017,06,19,12,21,14.80
2017,06,19,12,22,14.80
2017,06,19,12,23,14.80
2017,06,19,12,24,14.90
2017,06,19,12,26,14.90
2017,06,19,12,27,14.80
2017,06,19,12,28,14.80
2017,06,19,12,29,14.80
2017,06,19,12,31,14.80
2017,06,19,12,32,14.90
2017,06,19,12,33,14.90
2017,06,19,12,34,14.90
2017,06,19,12,36,15.00
2017,06,19,12,37,15.00
2017,06,19,12,38,15.10
2017,06,19,12,39,15.10
2017,06,19,12,41,15.20
2017,06,19,12,42,15.30
2017,06,19,12,43,15.30
2017,06,19,12,44,15.40
2017,06,19,12,46,15.40
2017,06,19,12,47,15.40
2017,06,19,12,48,15.40
2017,06,19,12,49,15.40
2017,06,19,12,51,15.40
2017,06,19,12,52,15.40
2017,06,19,12,53,15.40
2017,06,19,12,54,15.40
2017,06,19,12,55,15.40
2017,06,19,12,56,15.40
2017,06,19,12,57,15.40
2017,06,19,12,58,15.40
2017,06,19,12,59,15.40
2017,06,19,13,00,15.40
2017,06,19,13,01,15.40
2017,06,19,13,02,15.30
2017,06,19,13,03,15.30
2017,06,19,13,04,15.30
2017,06,19,13,06,15.20
2017,06,19,13,07,15.20
2017,06,19,13,08,15.20
2017,06,19,13,09,15.20
2017,06,19,13,10,15.10
2017,06,19,13,11,15.00
2017,06,19,13,12,15.00
2017,06,19,13,13,14.90
2017,06,19,13,14,14.90
2017,06,19,13,15,14.90
2017,06,19,13,16,14.90
2017,06,19,13,17,14.80
2017,06,19,13,18,14.80
2017,06,19,13,19,14.80
2017,06,19,13,20,14.80
2017,06,19,13,21,14.80
2017,06,19,13,22,14.80
2017,06,19,13,23,14.80
2017,06,19,13,24,14.80
2017,06,19,13,25,14.90
2017,06,19,13,26,14.90
2017,06,19,13,27,14.90
2017,06,19,13,28,14.90
2017,06,19,13,29,15.00
2017,06,19,13,30,15.10
2017,06,19,13,31,15.10
2017,06,19,13,32,15.20
2017,06,19,13,33,15.30
2017,06,19,13,34,15.30
2017,06,19,13,35,15.40
2017,06,19,13,36,15.40
2017,06,19,13,37,15.50
2017,06,19,13,38,15.60
2017,06,19,13,39,15.70
2017,06,19,13,40,15.80
2017,06,19,13,41,15.80
2017,06,19,13,42,15.80
2017,06,19,13,43,15.80
2017,06,19,13,44,15.90
2017,06,19,13,45,15.90
2017,06,19,13,46,15.80
2017,06,19,13,47,15.90
2017,06,19,13,48,15.90
2017,06,19,13,49,16.10
2017,06,19,13,50,16.10
2017,06,19,13,51,15.90
2017,06,19,13,52,15.90
2017,06,19,13,53,15.90
2017,06,19,13,54,15.80
2017,06,19,13,55,15.80
2017,06,19,13,56,15.80
2017,06,19,13,57,15.80
2017,06,19,13,58,15.80
2017,06,19,13,59,15.80
2017,06,19,14,00,15.80
2017,06,19,14,01,15.70
2017,06,19,14,02,15.70
2017,06,19,14,03,15.70
2017,06,19,14,04,15.70
2017,06,19,14,05,15.70
2017,06,19,14,06,15.70
2017,06,19,14,07,15.70
2017,06,19,14,08,15.80
2017,06,19,14,09,15.80
2017,06,19,14,10,15.80
2017,06,19,14,11,15.80
2017,06,19,14,12,15.80
2017,06,19,14,13,15.80
2017,06,19,14,14,15.80
2017,06,19,14,16,15.70
2017,06,19,14,17,15.80
2017,06,19,14,18,15.80
2017,06,19,14,19,15.80
2017,06,19,14,21,15.80
2017,06,19,14,22,15.90
2017,06,19,14,23,15.90
2017,06,19,14,24,16.10
2017,06,19,14,26,16.10
2017,06,19,14,27,16.10
2017,06,19,14,28,16.10
2017,06,19,14,29,16.20
2017,06,19,14,31,16.20
2017,06,19,14,32,16.30
2017,06,19,14,33,16.40
2017,06,19,14,34,16.40
2017,06,19,14,36,16.60
2017,06,19,14,37,16.60
2017,06,19,14,38,16.70
2017,06,19,14,39,16.70
2017,06,19,14,41,16.80
2017,06,19,14,42,16.80
2017,06,19,14,43,16.90
2017,06,19,14,44,16.90
2017,06,19,14,46,17.00
2017,06,19,14,47,17.10
2017,06,19,14,48,17.10
2017,06,19,14,49,17.10
2017,06,19,14,51,17.10
2017,06,19,14,52,17.10
2017,06,19,14,53,17.10
2017,06,19,14,54,17.10
2017,06,19,14,56,17.10
2017,06,19,14,57,17.10
2017,06,19,14,58,17.10
2017,06,19,14,59,17.20
2017,06,19,15,01,17.10
2017,06,19,15,02,17.10
2017,06,19,15,03,17.10
2017,06,19,15,04,17.20
2017,06,19,15,06,17.30
2017,06,19,15,07,17.30
2017,06,19,15,08,17.30
2017,06,19,15,09,17.30
2017,06,19,15,11,17.30
2017,06,19,15,12,17.40
2017,06,19,15,13,17.50
2017,06,19,15,14,17.50
2017,06,19,15,16,17.60
2017,06,19,15,17,17.70
2017,06,19,15,18,17.70
2017,06,19,15,19,17.70
2017,06,19,15,21,17.60
2017,06,19,15,22,17.60
2017,06,19,15,23,17.50
2017,06,19,15,24,17.50
2017,06,19,15,26,17.50
2017,06,19,15,27,17.50
2017,06,19,15,28,17.50
2017,06,19,15,29,17.50
2017,06,19,15,31,17.70
2017,06,19,15,32,17.70
2017,06,19,15,33,17.80
2017,06,19,15,34,17.90
2017,06,19,15,36,18.10
2017,06,19,15,37,18.20
2017,06,19,15,38,18.20
2017,06,19,15,39,18.30
2017,06,19,15,40,18.40
2017,06,19,15,41,18.40
2017,06,19,15,42,18.40
2017,06,19,15,43,18.50
2017,06,19,15,44,18.60
2017,06,19,15,45,18.60
2017,06,19,15,46,18.70
2017,06,19,15,47,18.70
2017,06,19,15,48,18.70
2017,06,19,15,49,18.80
2017,06,19,15,50,18.90
2017,06,19,15,51,18.90
2017,06,19,15,52,18.90
2017,06,19,15,53,18.90
2017,06,19,15,54,18.90
2017,06,19,15,55,19.10
2017,06,19,15,56,19.10
2017,06,19,15,57,19.10
2017,06,19,15,58,19.10
2017,06,19,15,59,19.10
2017,06,19,16,00,19.10
2017,06,19,16,01,18.90
2017,06,19,16,02,18.90
2017,06,19,16,03,18.90
2017,06,19,16,04,18.80
2017,06,19,16,06,18.80
2017,06,19,16,07,18.80
2017,06,19,16,08,18.80
2017,06,19,16,09,18.70
2017,06,19,16,10,18.70
2017,06,19,16,11,18.60
2017,06,19,16,12,18.60
2017,06,19,16,13,18.60
2017,06,19,16,14,18.60
2017,06,19,16,15,18.60
2017,06,19,16,16,18.50
2017,06,19,16,17,18.50
2017,06,19,16,18,18.50
2017,06,19,16,19,18.50
2017,06,19,16,20,18.40
2017,06,19,16,21,18.40
2017,06,19,16,22,18.40
2017,06,19,16,23,18.40
2017,06,19,16,24,18.40
2017,06,19,16,25,18.40
2017,06,19,16,26,18.40
2017,06,19,16,27,18.40
2017,06,19,16,28,18.40
2017,06,19,16,29,18.30
2017,06,19,16,30,18.20
2017,06,19,16,31,18.20
2017,06,19,16,32,18.20
2017,06,19,16,33,18.10
2017,06,19,16,34,17.90
2017,06,19,16,35,17.90
2017,06,19,16,36,17.80
2017,06,19,16,37,17.70
2017,06,19,16,38,17.60
2017,06,19,16,39,17.60
2017,06,19,16,40,17.50
2017,06,19,16,41,17.40
2017,06,19,16,42,17.30
2017,06,19,16,43,17.30
2017,06,19,16,44,17.20
2017,06,19,16,45,17.10
2017,06,19,16,46,17.00
2017,06,19,16,47,17.00
2017,06,19,16,48,16.90
2017,06,19,16,49,16.90
2017,06,19,16,50,16.80
2017,06,19,16,51,16.80
2017,06,19,16,52,16.70
2017,06,19,16,53,16.70
2017,06,19,16,54,16.70
2017,06,19,16,55,16.70
2017,06,19,16,56,16.70
2017,06,19,16,57,16.70
2017,06,19,16,58,16.70
2017,06,19,16,59,16.70
2017,06,19,17,00,16.70
2017,06,19,17,01,16.70
2017,06,19,17,02,16.80
2017,06,19,17,03,16.80
2017,06,19,17,04,16.80
2017,06,19,17,05,16.80
2017,06,19,17,07,16.90
2017,06,19,17,09,16.90
2017,06,19,17,11,17.00
2017,06,19,17,12,17.00
2017,06,19,17,13,17.10
2017,06,19,17,14,17.10
2017,06,19,17,16,17.20
2017,06,19,17,17,17.20
2017,06,19,17,18,17.20
2017,06,19,17,19,17.30
2017,06,19,17,21,17.30
2017,06,19,17,22,17.30
2017,06,19,17,23,17.30
2017,06,19,17,24,17.30
2017,06,19,17,26,17.30
2017,06,19,17,27,17.40
2017,06,19,17,28,17.40
2017,06,19,17,29,17.40
2017,06,19,17,31,17.40
2017,06,19,17,32,17.40
2017,06,19,17,33,17.40
2017,06,19,17,34,17.40
2017,06,19,17,36,17.40
2017,06,19,17,37,17.40
2017,06,19,17,38,17.40
2017,06,19,17,39,17.40
2017,06,19,17,41,17.30
2017,06,19,17,42,17.30
2017,06,19,17,43,17.30
2017,06,19,17,44,17.30
2017,06,19,17,46,17.30
2017,06,19,17,47,17.30
2017,06,19,17,48,17.30
2017,06,19,17,49,17.30
2017,06,19,17,51,17.30
2017,06,19,17,52,17.30
2017,06,19,17,53,17.30
2017,06,19,17,54,17.30
2017,06,19,17,56,17.30
2017,06,19,17,57,17.30
2017,06,19,17,58,17.20
2017,06,19,17,59,17.20
2017,06,19,18,01,17.20
2017,06,19,18,02,17.20
2017,06,19,18,03,17.20
2017,06,19,18,04,17.10
2017,06,19,18,06,17.00
2017,06,19,18,07,16.90
2017,06,19,18,08,16.80
2017,06,19,18,09,16.80
2017,06,19,18,11,16.70
2017,06,19,18,12,16.70
2017,06,19,18,13,16.60
2017,06,19,18,14,16.60
2017,06,19,18,16,16.40
2017,06,19,18,17,16.30
2017,06,19,18,18,16.30
2017,06,19,18,19,16.20
2017,06,19,18,21,16.20
2017,06,19,18,22,16.20
2017,06,19,18,23,16.20
2017,06,19,18,24,16.10
2017,06,19,18,26,16.10
2017,06,19,18,27,16.10
2017,06,19,18,28,16.10
2017,06,19,18,29,15.90
2017,06,19,18,31,15.80
2017,06,19,18,32,15.80
2017,06,19,18,33,15.80
2017,06,19,18,34,15.80
2017,06,19,18,36,15.80
2017,06,19,18,37,15.80
2017,06,19,18,38,15.70
2017,06,19,18,39,15.70
2017,06,19,18,40,15.70
2017,06,19,18,41,15.70
2017,06,19,18,42,15.70
2017,06,19,18,43,15.70
2017,06,19,18,44,15.70
2017,06,19,18,45,15.70
2017,06,19,18,46,15.70
2017,06,19,18,47,15.60
2017,06,19,18,48,15.60
2017,06,19,18,49,15.60
2017,06,19,18,50,15.70
2017,06,19,18,51,15.70
2017,06,19,18,52,15.70
2017,06,19,18,53,15.70
2017,06,19,18,54,15.70
2017,06,19,18,55,15.80
2017,06,19,18,56,15.80
2017,06,19,18,57,15.80
2017,06,19,18,58,15.80
2017,06,19,18,59,15.80
2017,06,19,19,00,15.80
2017,06,19,19,01,15.80
2017,06,19,19,02,15.80
2017,06,19,19,03,15.80
2017,06,19,19,04,15.70
2017,06,19,19,05,15.70
2017,06,19,19,06,15.70
2017,06,19,19,07,15.70
2017,06,19,19,08,15.60
2017,06,19,19,09,15.60
2017,06,19,19,10,15.60
2017,06,19,19,11,15.60
2017,06,19,19,12,15.60
2017,06,19,19,13,15.60
2017,06,19,19,14,15.60
2017,06,19,19,15,15.60
2017,06,19,19,16,15.60
2017,06,19,19,17,15.60
2017,06,19,19,18,15.50
2017,06,19,19,19,15.50
2017,06,19,19,20,15.50
2017,06,19,19,21,15.50
2017,06,19,19,22,15.50
2017,06,19,19,23,15.50
2017,06,19,19,24,15.50
2017,06,19,19,25,15.50
2017,06,19,19,26,15.50
2017,06,19,19,27,15.50
2017,06,19,19,28,15.50
2017,06,19,19,29,15.50
2017,06,19,19,30,15.60
2017,06,19,19,31,15.60
2017,06,19,19,32,15.60
2017,06,19,19,33,15.60
2017,06,19,19,34,15.60
2017,06,19,19,35,15.60
2017,06,19,19,36,15.60
2017,06,19,19,37,15.70
2017,06,19,19,38,15.70
2017,06,19,19,39,15.70
2017,06,19,19,40,15.70
2017,06,19,19,41,15.70
2017,06,19,19,42,15.70
2017,06,19,19,43,15.80
2017,06,19,19,44,15.80
2017,06,19,19,45,15.80
2017,06,19,19,46,15.80
2017,06,19,19,47,15.80
2017,06,19,19,48,15.70
2017,06,19,19,49,15.70
2017,06,19,19,50,15.70
2017,06,19,19,51,15.60
2017,06,19,19,52,15.60
2017,06,19,19,53,15.50
2017,06,19,19,54,15.40
2017,06,19,19,55,15.30
2017,06,19,19,56,15.30
2017,06,19,19,57,15.30
2017,06,19,19,59,15.20
2017,06,19,20,01,15.20
2017,06,19,20,02,15.10
2017,06,19,20,04,15.10
2017,06,19,20,06,15.00
2017,06,19,20,07,15.00
2017,06,19,20,08,15.00
2017,06,19,20,09,15.00
2017,06,19,20,11,15.00
2017,06,19,20,12,14.90
2017,06,19,20,13,14.90
2017,06,19,20,14,14.90
2017,06,19,20,16,14.90
2017,06,19,20,17,14.80
2017,06,19,20,18,14.80
2017,06,19,20,19,14.80
2017,06,19,20,21,14.80
2017,06,19,20,22,14.70
2017,06,19,20,23,14.70
2017,06,19,20,24,14.60
2017,06,19,20,26,14.50
2017,06,19,20,27,14.50
2017,06,19,20,28,14.40
2017,06,19,20,29,14.30
2017,06,19,20,31,14.20
2017,06,19,20,32,14.20
2017,06,19,20,33,14.20
2017,06,19,20,34,14.20
2017,06,19,20,36,14.20
2017,06,19,20,37,14.20
2017,06,19,20,38,14.20
2017,06,19,20,39,14.20
2017,06,19,20,41,14.20
2017,06,19,20,42,14.10
2017,06,19,20,43,14.10
2017,06,19,20,44,14.10
2017,06,19,20,46,14.10
2017,06,19,20,47,14.10
2017,06,19,20,48,14.10
2017,06,19,20,49,14.10
2017,06,19,20,51,14.10
2017,06,19,20,52,14.10
2017,06,19,20,53,14.10
2017,06,19,20,54,14.10